Location: St Paul
(33.9360°N, 83.4200°W)
Time: 21:37:54
(UTC-05:00)

Spot 2 Rocket - Pass Details

Date: 06 October 2017
Orbit: 757 x 772 km, 98.7° (Epoch: 16 December)

Event Time Altitude Azimuth Distance (km) Brightness Sun altitude
Exits shadow 21:21:26 42° 4° (N) 1,081 4.2 -27.8°
Drops below altitude 10° 21:24:45 10° 352° (N) 2,292 6.2 -28.5°
Sets 21:27:04 0° 350° (N) 3,222 7.0 -28.9°
